Regional Weather Roundup
Issued by NWS

Home | Current Version | Previous Version | Graphics & Text | Print | Product List | Glossary On
Versions: 1 2 3 4 5 6 7 8 9 10 11 12 13 14 15 16 17 18 19 20 21 22 23 24 25 26 27 28 29 30 31 32 33 34 35 36 37 38 39 40 41 42 43 44 45 46 47 48 49 50
000
ASUS44 KMEG 192310
RWRTN
TENNESSEE HOURLY STATE WEATHER ROUNDUP
NATIONAL WEATHER SERVICE MEMPHIS TN
500 PM CST SUN FEB 19 2017

TNZ002-004-019-021-049-052-054-088>092-200000-
WEST TENNESSEE

CITY           SKY/WX    TMP DP  RH WIND       PRES   REMARKS
MEMPHIS INTL   PTCLDY    74  52  46 S8        30.04S
NWS MEMPHIS      N/A     76 N/A N/A MISG        N/A
JACKSON        CLEAR     72  53  51 E7        30.06F
UNION CITY     CLEAR     70  48  46 CALM      30.06S
PARIS          CLEAR     68  52  56 CALM      30.08S
HUNTINGDON     CLEAR     72  52  49 E5        30.06F
$$

TNZ008-025-027-028-033-062-065-066-200000-
NORTH MIDDLE TENNESSEE

CITY           SKY/WX    TMP DP  RH WIND       PRES   REMARKS
NASHVILLE      PTCLDY    67  49  52 CALM      30.12R
PORTLAND       CLEAR     64  52  63 CALM      30.12R
CLARKSVILLE    CLEAR     68  51  54 E3        30.09S
SMYRNA         CLEAR     66  51  58 N3        30.13R
COOKEVILLE     CLEAR     64  48  55 W3        30.11R
GALLATIN       CLEAR     64  52  63 S3        30.15R
CROSSVILLE     CLEAR     64  44  48 NW6       30.13R
$$

TNZ061-075-076-078-094-096-097-200000-
SOUTH MIDDLE TENNESSEE

CITY           SKY/WX    TMP DP  RH WIND       PRES   REMARKS
FAYETTEVILLE   CLEAR     66  50  55 CALM      30.11S
TULLAHOMA      CLEAR     64  46  52 NW6       30.13S
WINCHESTER     CLEAR     66  48  52 CALM      30.12R
MCMINNVILLE    CLEAR     66  50  55 CALM      30.12S
COLUMBIA       CLEAR     70  54  56 E3        30.08S
SHELBYVILLE    CLEAR     70  52  52 VRB3      30.13S
$$

TNZ017-018-042-046-047-200000-
NORTHEAST TENNESSEE

CITY           SKY/WX    TMP DP  RH WIND       PRES   REMARKS
TRI CITIES     CLEAR     57  43  59 S5        30.12S
ELIZABETHTON   CLEAR     55  43  62 CALM      30.12R
$$

TNZ012-013-036-069-073-074-200000-
CENTRAL EAST TENNESSEE

CITY           SKY/WX    TMP DP  RH WIND       PRES   REMARKS
KNOXVILLE      CLEAR     64  43  46 CALM      30.11R
OAK RIDGE      CLEAR     63  45  51 S3        30.13R
GATLINBURG     CLEAR     61  43  51 NE3       30.12R
MORRISTOWN     CLEAR     61  45  55 SW5       30.12R
JACKSBORO      CLEAR     63  46  55 CALM      30.14S
$$

TNZ083-085-099-200000-
SOUTHEAST TENNESSEE

CITY           SKY/WX    TMP DP  RH WIND       PRES   REMARKS
CHATTANOOGA    CLEAR     67  46  47 NE5       30.11R
$$

SKY/WX REPORTED AS FAIR MEANS FEW OR NO CLOUDS BELOW
12 THOUSAND FEET.





USA.gov is the U.S. government's official web portal to all federal, state and local government web resources and services.